Location: Paderno d�Adda
(45.6667°N, 9.4333°E)
Time: 22:02:37
(UTC+00:00)

CENTAUR R/B - Pass Details

Date: 20 January 2021
Orbit: 742 x 1446 km, 63.5° (Epoch: 07 March)

Event Time Altitude Azimuth Distance (km) Brightness Sun altitude
Rises 16:33:44 0° 313° (NW) 4,278 6.2 -4.3°
Reaches altitude 10° 16:37:05 10° 301° (WNW) 3,393 5.9 -4.8°
Maximum altitude 16:43:27 25° 252° (WSW) 2,559 5.9 -5.9°
Drops below altitude 10° 16:50:07 10° 203° (SSW) 3,552 6.1 -6.9°
Sets 16:53:44 0° 190° (S) 4,519 6.4 -7.5°
